Location: Hradec Kralove
(50.2170°N, 15.8330°E)
Time: 03:12:02
(UTC+01:00)

N. Korean satellite - Pass Details

Date: 03 December 2022
Orbit: 407 x 442 km, 97.3° (Epoch: 05 February)

Event Time Altitude Azimuth Distance (km) Brightness Sun altitude
Rises 17:10:53 0° 200° (SSW) 2,451 10.8 -11.4°
Reaches altitude 10° 17:13:16 10° 217° (SW) 1,596 10.1 -11.8°
Maximum altitude 17:15:53 20° 267° (W) 1,119 9.4 -12.2°
Drops below altitude 10° 17:18:33 10° 317° (NW) 1,628 9.5 -12.6°
Sets 17:21:01 0° 335° (NNW) 2,518 10.3 -12.9°
